Satellite: NOAA-10
Catalog number: 16969
Epoch time:      10007.49127082
Element set:     908
Inclination:      098.6735 deg
RA of node:       037.8330 deg
Eccentricity:    0.0011781
Arg of perigee:   324.0456 deg
Mean anomaly:     035.9944 deg
Mean motion:   14.27403255 rev/day
Decay rate:       -4.3e-07 rev/day^2
Epoch rev:           21265
Checksum:              296

Satellite: NOAA-11
Catalog number: 19531
Epoch time:      10007.50514062
Element set:     920
Inclination:      098.7768 deg
RA of node:       099.2414 deg
Eccentricity:    0.0010909
Arg of perigee:   244.3920 deg
Mean anomaly:     115.6139 deg
Mean motion:   14.14913252 rev/day
Decay rate:       2.98e-06 rev/day^2
Epoch rev:            9841
Checksum:              289

Satellite: NOAA-12
Catalog number: 21263
Epoch time:      10007.55859662
Element set:     402
Inclination:      098.7693 deg
RA of node:       020.7044 deg
Eccentricity:    0.0011531
Arg of perigee:   274.3395 deg
Mean anomaly:     085.6473 deg
Mean motion:   14.25610088 rev/day
Decay rate:        2.4e-07 rev/day^2
Epoch rev:           96951
Checksum:              295

Satellite: MET-3/5
Catalog number: 21655
Epoch time:      10006.82225271
Element set:     705
Inclination:      082.5543 deg
RA of node:       062.6498 deg
Eccentricity:    0.0014322
Arg of perigee:   036.8953 deg
Mean anomaly:     323.3167 deg
Mean motion:   13.17019260 rev/day
Decay rate:        5.1e-07 rev/day^2
Epoch rev:           88443
Checksum:              282

Satellite: MET-2/21
Catalog number: 22782
Epoch time:      10007.53829594
Element set:     662
Inclination:      082.5464 deg
RA of node:       019.8946 deg
Eccentricity:    0.0023538
Arg of perigee:   130.8200 deg
Mean anomaly:     229.5022 deg
Mean motion:   13.83639940 rev/day
Decay rate:       -1.6e-07 rev/day^2
Epoch rev:           82586
Checksum:              310

Satellite: OKEAN-4
Catalog number: 23317
Epoch time:      10006.83700406
Element set:    0121
Inclination:      082.5414 deg
RA of node:       144.4485 deg
Eccentricity:    0.0023688
Arg of perigee:   056.1848 deg
Mean anomaly:     304.1618 deg
Mean motion:   14.82754566 rev/day
Decay rate:       3.15e-06 rev/day^2
Epoch rev:           82254
Checksum:              283

Satellite: NOAA-14
Catalog number: 23455
Epoch time:      10007.49025134
Element set:     896
Inclination:      098.8928 deg
RA of node:       089.2737 deg
Eccentricity:    0.0009134
Arg of perigee:   336.5301 deg
Mean anomaly:     023.5455 deg
Mean motion:   14.13775994 rev/day
Decay rate:       -3.0e-07 rev/day^2
Epoch rev:           77479
Checksum:              324

Satellite: NOAA-15
Catalog number: 25338
Epoch time:      10007.12942681
Element set:     223
Inclination:      098.6051 deg
RA of node:       357.0703 deg
Eccentricity:    0.0010720
Arg of perigee:   179.2851 deg
Mean anomaly:     180.8330 deg
Mean motion:   14.24801223 rev/day
Decay rate:       1.22e-06 rev/day^2
Epoch rev:           60581
Checksum:              257

Satellite: RESURS
Catalog number: 25394
Epoch time:      10007.81469868
Element set:     400
Inclination:      098.3180 deg
RA of node:       034.5299 deg
Eccentricity:    0.0001520
Arg of perigee:   007.9720 deg
Mean anomaly:     352.1478 deg
Mean motion:   14.24192058 rev/day
Decay rate:       -1.3e-07 rev/day^2
Epoch rev:           59752
Checksum:              288

Satellite: FENGYUN1
Catalog number: 25730
Epoch time:      10006.44801719
Element set:    0942
Inclination:      098.7724 deg
RA of node:       335.7260 deg
Eccentricity:    0.0024388
Arg of perigee:   359.9766 deg
Mean anomaly:     000.1389 deg
Mean motion:   14.08167581 rev/day
Decay rate:       6.67e-06 rev/day^2
Epoch rev:           54892
Checksum:              325

Satellite: OKEAN-0
Catalog number: 25860
Epoch time:      10007.83021624
Element set:     881
Inclination:      097.8116 deg
RA of node:       346.1706 deg
Eccentricity:    0.0000536
Arg of perigee:   094.5756 deg
Mean anomaly:     265.5517 deg
Mean motion:   14.73606055 rev/day
Decay rate:        8.0e-08 rev/day^2
Epoch rev:           56328
Checksum:              293

Satellite: NOAA-16
Catalog number: 26536
Epoch time:      10007.08144104
Element set:     701
Inclination:      099.1779 deg
RA of node:       020.6971 deg
Eccentricity:    0.0011102
Arg of perigee:   071.5953 deg
Mean anomaly:     288.6419 deg
Mean motion:   14.12543914 rev/day
Decay rate:       2.29e-06 rev/day^2
Epoch rev:           47908
Checksum:              292

Satellite: NOAA-17
Catalog number: 27453
Epoch time:      10007.17628248
Element set:     702
Inclination:      098.4565 deg
RA of node:       063.9203 deg
Eccentricity:    0.0010911
Arg of perigee:   245.5726 deg
Mean anomaly:     114.4303 deg
Mean motion:   14.24121476 rev/day
Decay rate:       2.31e-06 rev/day^2
Epoch rev:           39178
Checksum:              279

Satellite: NOAA-18
Catalog number: 28654
Epoch time:      10007.15832710
Element set:     185
Inclination:      098.9331 deg
RA of node:       314.0451 deg
Eccentricity:    0.0014662
Arg of perigee:   144.8509 deg
Mean anomaly:     215.3633 deg
Mean motion:   14.11316228 rev/day
Decay rate:      -1.20e-06 rev/day^2
Epoch rev:           23872
Checksum:              272

Satellite: NOAA-19
Catalog number: 33591
Epoch time:      10007.74957038
Element set:     393
Inclination:      098.7724 deg
RA of node:       313.4252 deg
Eccentricity:    0.0014564
Arg of perigee:   026.9140 deg
Mean anomaly:     333.2739 deg
Mean motion:   14.11016803 rev/day
Decay rate:       4.05e-06 rev/day^2
Epoch rev:            4728
Checksum:              291

/EX
SB KEPS @ AMSAT  $ORB10007.M
Orbital Elements  10007.MISC

HR AMSAT ORBITAL ELEMENTS FOR MANNED AND MISCELLANEOUS SATELLITES
FROM WA5QGD FORT WORTH,TX January 7, 2010
Send Subscribe/unsubscribe to KEPS at 
http://www.amsat.org/mailman/listinfo/keps
BID: ORB10007.M
TO ALL RADIO AMATEURS BT

Satellite: HUBBLE
Catalog number: 20580
Epoch time:      10006.86498872
Element set:     499
Inclination:      028.4697 deg
RA of node:       212.9301 deg
Eccentricity:    0.0003271
Arg of perigee:   285.0678 deg
Mean anomaly:     074.9550 deg
Mean motion:   15.00875268 rev/day
Decay rate:       3.29e-06 rev/day^2
Epoch rev:           88048
Checksum:              322

Satellite: ISS
Catalog number: 25544
Epoch time:      10008.06761631
Element set:     328
Inclination:      051.6470 deg
RA of node:       333.3865 deg
Eccentricity:    0.0007755
Arg of perigee:   157.1785 deg
Mean anomaly:     297.1097 deg
Mean motion:   15.77228506 rev/day
Decay rate:     1.0902e-04 rev/day^2
Epoch rev:           63824
Checksum:              304

Satellite: CO-58
Catalog number: 28895
Epoch time:      10006.22645861
Element set:    0481
Inclination:      098.0375 deg
RA of node:       255.8548 deg
Eccentricity:    0.0018878
Arg of perigee:   073.7724 deg
Mean anomaly:     286.5524 deg
Mean motion:   14.59831647 rev/day
Decay rate:        9.0e-07 rev/day^2
Epoch rev:           22335
Checksum:              345

Satellite: FALCON
Catalog number: 30776
Epoch time:      10006.92143374
Element set:    0751
Inclination:      035.4346 deg
RA of node:       303.1796 deg
Eccentricity:    0.0001261
Arg of perigee:   282.9268 deg
Mean anomaly:     077.1313 deg
Mean motion:   15.03415426 rev/day
Decay rate:       3.66e-06 rev/day^2
Epoch rev:           15577
Checksum:              279

Satellite: MAST
Catalog number: 31126
Epoch time:      10006.66135283
Element set:    0771
Inclination:      097.9602 deg
RA of node:       056.8371 deg
Eccentricity:    0.0094905
Arg of perigee:   008.7510 deg
Mean anomaly:     351.5310 deg
Mean motion:   14.53544007 rev/day
Decay rate:        9.0e-08 rev/day^2
Epoch rev:           14459
Checksum:              274

Satellite: CAPE1
Catalog number: 31130
Epoch time:      10006.62470748
Element set:    0786
Inclination:      097.9624 deg
RA of node:       054.5409 deg
Eccentricity:    0.0102829
Arg of perigee:   015.8623 deg
Mean anomaly:     344.5676 deg
Mean motion:   14.52120823 rev/day
Decay rate:      -1.10e-06 rev/day^2
Epoch rev:           14421
Checksum:              273

Satellite: COMPASS
Catalog number: 32787
Epoch time:      10006.17296983
Element set:    0564
Inclination:      097.9152 deg
RA of node:       073.0063 deg
Eccentricity:    0.0016918
Arg of perigee:   092.8835 deg
Mean anomaly:     267.4301 deg
Mean motion:   14.81729877 rev/day
Decay rate:       3.08e-06 rev/day^2
Epoch rev:           09150
Checksum:              318

Satellite: AAUSAT2
Catalog number: 32788
Epoch time:      10006.59623676
Element set:    0556
Inclination:      097.9158 deg
RA of node:       073.5179 deg
Eccentricity:    0.0016633
Arg of perigee:   092.0373 deg
Mean anomaly:     268.2711 deg
Mean motion:   14.81859001 rev/day
Decay rate:      -1.40e-06 rev/day^2
Epoch rev:           09157
Checksum:              312

Satellite: DO-64
Catalog number: 32789
Epoch time:      10006.61565757
Element set:    0573
Inclination:      097.9212 deg
RA of node:       073.8501 deg
Eccentricity:    0.0016700
Arg of perigee:   090.9979 deg
Mean anomaly:     269.3175 deg
Mean motion:   14.81914074 rev/day
Decay rate:       6.68e-06 rev/day^2
Epoch rev:           09157
Checksum:              338

Satellite: CO-66
Catalog number: 32791
Epoch time:      10006.17277400
Element set:    0553
Inclination:      097.9175 deg
RA of node:       073.0352 deg
Eccentricity:    0.0017305
Arg of perigee:   091.2633 deg
Mean anomaly:     269.0535 deg
Mean motion:   14.81540378 rev/day
Decay rate:       2.58e-06 rev/day^2
Epoch rev:           09146
Checksum:              296

